Regional Weather Roundup
Issued by NWS

Home | Current Version | Previous Version | Text Only | Print | Product List | Glossary Off
Versions: 1 2 3 4 5 6 7 8 9 10 11 12 13 14 15 16 17 18 19 20 21 22 23 24 25 26 27 28 29 30 31 32 33 34 35 36 37 38 39 40 41 42 43 44 45 46 47 48 49 50

000
ASUS43 KOAX 021610
RWRNE

WEATHER ROUNDUP FOR NEBRASKA
NATIONAL WEATHER SERVICE OMAHA NE
1100 AM CDT TUE SEP 02 2014

NOTES: SATELLITE DATA IS BEING USED TO AUGMENT CLOUD COVER ABOVE
       12000 FEET.
       "FAIR" INDICATES FEW OR NO CLOUDS BELOW 12,000 FEET WITH NO
       SIGNIFICANT WEATHER AND/OR OBSTRUCTIONS TO VISIBILITY.

  * THESE STATIONS DO NOT REPORT WEATHER SUCH AS RAIN...SNOW OR FOG.

NEZ001>004-019>022-054>056-021700-
NEBRASKA PANHANDLE

CITY           SKY/WX    TMP DP  RH WIND       PRES   REMARKS
SCOTTSBLUFF    SUNNY     66  49  54 VRB5      30.04F
ALLIANCE       SUNNY     69  45  41 S14       30.04F
CHADRON        SUNNY     72  47  40 SW16      29.96F
KIMBALL        SUNNY     68  47  47 SW6       30.08F
SIDNEY         SUNNY     70  51  51 S12       30.09F
$$

NEZ057>060-069>072-079>082-021700-
SOUTHWEST NEBRASKA

CITY           SKY/WX    TMP DP  RH WIND       PRES   REMARKS
NORTH PLATTE   SUNNY     66  57  72 CALM      30.06F
IMPERIAL       CLOUDY    63  57  81 S10       30.08F
LEXINGTON      SUNNY     67  60  78 W3        30.06F
MCCOOK         SUNNY     71  59  65 SW6       30.07F
OGALLALA       SUNNY     63  56  77 CALM      30.07S
$$

NEZ005>010-023>029-035>040-094-021700-
NORTH CENTRAL NEBRASKA

CITY           SKY/WX    TMP DP  RH WIND       PRES   REMARKS
VALENTINE      SUNNY     68  54  60 SW9       30.00F
AINSWORTH      SUNNY     68  50  52 SW8       30.01F
BROKEN BOW     SUNNY     67  55  65 S9        30.05R
O`NEILL        SUNNY     70  56  61 W7        30.01S
ORD            SUNNY     67  57  70 CALM      30.02S
THEDFORD       SUNNY     70  52  52 SW6       30.04F
$$

NEZ041-046>049-061>064-073>077-083>087-021700-
SOUTH CENTRAL NEBRASKA

CITY           SKY/WX    TMP DP  RH WIND       PRES   REMARKS
GRAND ISLAND   SUNNY     71  53  52 W7        30.05F
AURORA         SUNNY     68  57  66 W3        30.04F
HASTINGS       SUNNY     71  56  58 N5        30.04F
HEBRON         SUNNY     71  54  55 N5        30.02F
HOLDREGE       SUNNY     68  59  72 CALM      30.06F
KEARNEY *      SUNNY     70  57  64 SW3       30.06S
YORK           SUNNY     68 N/A N/A NW3       30.03F
$$

NEZ011>018-030>034-042>045-021700-
NORTHEAST NEBRASKA

CITY           SKY/WX    TMP DP  RH WIND       PRES   REMARKS
NORFOLK        SUNNY     69  55  60 SW5       30.01S
ALBION         SUNNY     66  56  70 CALM      30.02F
BLAIR          SUNNY     68  59  72 NW3       30.01S
FREMONT        SUNNY     69  58  68 SW3       30.02S
TEKAMAH        SUNNY     68  60  75 S3        30.01S
WAYNE          SUNNY     70  58  67 CALM      30.00F
$$

NEZ050>053-065>068-078-088>093-021700-
SOUTHEAST NEBRASKA

CITY           SKY/WX    TMP DP  RH WIND       PRES   REMARKS
LINCOLN        SUNNY     71  57  61 CALM      30.03S
OMAHA EPPLEY   MOSUNNY   72  58  61 VRB3      30.01S
BEATRICE       SUNNY     73  58  59 N9        30.01F
FALLS CITY     SUNNY     76  60  57 N3        29.99S
NEBRASKA CITY  SUNNY     71  58  64 N7        30.01R
PLATTSMOUTH    SUNNY     70  58  65 NW7       30.01S
$$

NEZ044-045-051>053-067-021700-
OMAHA AREA

CITY           SKY/WX    TMP DP  RH WIND       PRES   REMARKS
OMAHA EPPLEY   MOSUNNY   72  58  61 VRB3      30.01S
BLAIR          SUNNY     68  59  72 NW3       30.01S
FREMONT        SUNNY     69  58  68 SW3       30.02S
MILLARD        SUNNY     70  57  64 CALM      30.01S
OFFUTT AFB     SUNNY     71  62  72 NW6       30.00S
PLATTSMOUTH    SUNNY     70  58  65 NW7       30.01S
WAHOO          FAIR      68  56  64 W3        30.02S
$$



USA.gov is the U.S. government's official web portal to all federal, state and local government web resources and services.